Flag for Japan Weather past 2 weeks in Fukushima, Japan

Now
89 °F

Hot.


Feels Like: 99 °F
Forecast: 68 / 95 °F
Wind: 3 mph from North

Location: Wakamatsu

Current Time: Jul 31, 2015 at 1:14:45 PM

Latest Report: Jul 31, 2015 at 11:00 AM


Visibility: 8 mi

Pressure: 29.81 "Hg

Humidity: 63%

Dew point: 75 °F

Location of FukushimaLocation

Historic Weather in Fukushima — Graph

°F

Fukushima temperature yesterday

Maximum temperature yesterday: 91 °F (at 3:00 PM)
Minimum temperature yesterday: 74 °F (at 4:00 AM)
Average temperature yesterday: 82 °F

Past Weeks' High & Low Weather Summary

 TemperatureHumidityPressure
High96 °F (Jul 21, 2:00 PM)100% (Jul 17, 3:00 AM)29.99 "Hg (Jul 17, 3:00 AM)
Low69 °F (Jul 26, 5:00 AM)43% (Jul 22, 2:00 PM)29.62 "Hg (Jul 17, 2:00 PM)
Average79 °F82%29.81 "Hg
* Reported Jul 16 11:00 AM — Jul 31 11:00 AM, Fukushima, Weather by CustomWeather, © 2015

Note: Actual official high and low records may vary slightly from our data, if they occured in-between our weather recording intervals... More about our weather records

Advertising

Fukushima weather history for previous 24 hours

 ConditionsComfort  
Time TempWeatherWind HumidityBarometerVisibility
11:00 AM
Fri, Jul 31
89 °FHot.3 mph63%29.81 "Hg8 mi
10:00 AM86 °FWarm.3 mph67%29.82 "Hg8 mi
9:00 AM84 °FWarm.5 mph72%29.83 "Hg7 mi
8:00 AM81 °FFog.3 mph81%29.84 "Hg6 mi
7:00 AM79 °FFog.1 mph89%29.84 "Hg6 mi
5:00 AM77 °FWarm.1 mph93%29.83 "Hg5 mi
4:00 AM77 °FLight rain. Cloudy.2 mph93%29.83 "Hg5 mi
3:00 AM77 °FFog.1 mph94%29.82 "Hg4 mi
2:00 AM78 °FFog.1 mph92%29.82 "Hg5 mi
1:00 AM78 °FFog.2 mph91%29.81 "Hg5 mi
12:00 AM78 °FFog.2 mph91%29.81 "Hg5 mi
11:00 PM
Thu, Jul 30
78 °FFog.2 mph91%29.81 "Hg5 mi
10:00 PM80 °FFog.2 mph88%29.81 "Hg5 mi
9:00 PM83 °FWarm.3 mph77%29.80 "Hg6 mi
8:00 PM83 °FWarm.3 mph75%29.80 "Hg7 mi
7:00 PM84 °FWarm.6 mph73%29.79 "Hg7 mi
6:00 PM86 °FWarm.7 mph68%29.78 "Hg9 mi
5:00 PM89 °FHot.6 mph61%29.75 "Hg11 mi
4:00 PM90 °FHot.8 mph59%29.75 "Hg12 mi
3:00 PM91 °FHot.5 mph54%29.75 "Hg12 mi
2:00 PM89 °FHot.6 mph56%29.76 "Hg12 mi
1:00 PM89 °FHot.7 mph55%29.77 "Hg11 mi
Weather by CustomWeather, © 2015

See weather overviewHow to use our weather pages